Theta_e
347 346 344 342 341 339 339 337 335 336 335 335 335 334 334 336 336 336 336 336 336 336 337 339 339 340 341 341 341 341 339 337 336 332 332 332 332 331 330 330 329 329 327
347 346 345 343 340 339 337 336 335 335 334 334 333 332 332 332 333 333 334 333 334 333 333 334 335 336 338 338 339 339 340 339 336 331 328 327 326 326 325 325 323 323 322
347 346 345 342 341 338 337 336 335 334 334 333 332 331 330 330 330 329 330 329 330 331 331 331 332 333 334 334 336 337 337 338 335 331 326 324 321 322 322 321 320 320 321
347 347 345 343 341 338 338 337 335 335 334 333 332 331 330 329 328 327 326 327 328 329 329 328 329 331 332 332 332 333 334 334 332 329 325 323 321 320 320 318 318 318 317
347 346 345 343 341 338 338 337 336 335 334 332 331 331 330 329 328 327 325 324 324 323 323 324 326 329 330 331 330 330 331 330 329 326 324 323 322 319 319 319 316 315 315
348 346 345 344 341 339 338 337 335 336 333 332 330 330 329 329 328 328 326 325 325 324 321 317 323 325 327 329 329 328 328 328 327 326 325 325 323 323 321 319 316 316 316
347 346 345 346 342 340 338 337 336 334 333 330 329 329 328 328 328 327 327 325 324 321 318 315 319 319 320 323 326 326 325 325 325 326 325 324 324 323 322 319 317 319 317
347 347 346 345 342 341 339 336 336 334 333 330 327 327 327 328 327 326 325 325 322 319 319 318 314 312 312 313 316 319 321 321 322 322 322 321 322 322 321 320 319 318 316
343 341 340 343 343 341 339 337 335 333 331 328 326 325 325 326 327 325 324 323 321 319 318 319 319 317 315 316 312 311 314 315 314 313 310 308 308 316 319 319 318 317 315
339 335 334 334 337 340 340 338 335 332 330 327 324 322 322 322 323 325 323 320 319 316 316 318 319 320 318 318 317 312 310 309 310 309 308 305 304 307 316 316 313 316 317
333 331 330 333 335 339 341 339 335 333 329 326 325 322 320 319 320 324 324 320 318 316 313 313 314 316 318 320 318 315 314 314 313 310 309 306 306 305 305 307 307 313 316
328 328 330 333 335 338 340 336 334 331 328 324 321 319 318 317 319 321 323 320 318 316 314 312 310 311 310 307 307 306 308 309 308 309 311 307 306 307 307 307 307 305 308
325 327 328 330 332 336 337 335 332 328 325 321 320 318 317 318 318 316 319 317 316 313 307 305 305 306 306 307 305 306 307 309 309 310 311 309 305 306 307 306 308 308 304
321 323 325 327 328 330 330 330 329 325 322 320 319 317 315 313 311 313 314 314 311 306 307 306 305 305 306 307 307 307 306 305 305 305 305 305 305 305 305 305 304 307 308
320 321 322 323 323 324 324 322 323 322 322 321 319 317 315 312 310 310 310 309 308 306 306 308 309 309 309 308 308 307 306 305 304 304 303 303 303 304 304 303 303 303 305
319 320 321 321 320 320 320 318 318 318 318 318 317 317 316 313 311 312 311 310 307 306 307 307 309 307 307 306 306 307 306 304 304 303 303 302 302 302 301 301 301 302 302
318 318 317 318 317 317 316 317 315 314 314 315 315 314 313 313 312 310 309 309 307 305 305 307 307 306 306 305 305 305 305 304 303 303 303 302 301 301 301 301 301 301 302
317 316 316 316 315 315 313 312 312 314 313 312 312 312 311 311 309 307 305 304 302 306 307 307 306 306 305 305 304 304 304 303 303 303 303 302 302 302 302 302 301 301 301
317 316 315 315 314 313 312 309 307 307 308 307 307 308 308 307 305 304 302 301 305 305 306 307 307 306 305 305 304 304 304 303 302 302 302 302 302 302 301 302 302 301 301
319 318 317 316 315 314 313 311 309 308 307 306 305 303 303 302 301 301 301 302 305 305 306 306 306 306 306 305 305 304 304 303 303 302 302 302 302 302 302 302 302 302 301
322 321 320 318 318 317 316 314 313 311 310 308 308 306 304 304 305 304 304 305 306 306 306 306 306 305 305 305 304 304 303 303 303 303 302 302 302 302 302 302 303 302 301
313 312 312 313 312 314 315 314 313 312 311 310 309 308 307 305 303 305 305 305 304 303 305 306 306 304 304 304 303 303 302 302 303 303 302 302 302 302 301 301 302 302 301
309 309 310 311 311 310 310 311 311 312 312 311 310 309 309 308 306 305 304 304 304 305 305 306 306 304 303 302 302 303 303 303 303 303 303 303 302 302 302 301 301 301 301
310 311 312 312 314 313 313 313 312 312 312 312 311 308 307 306 305 304 305 307 308 306 304 303 303 303 303 303 303 303 303 303 304 304 304 304 303 301 300 300 300 300 299
314 313 313 314 313 313 311 309 308 310 311 310 308 306 306 306 308 308 307 306 306 305 304 303 303 302 302 300 299 298 298 301 301 301 301 301 302 303 303 302 301 299 298
314 313 312 310 310 310 310 309 309 309 309 309 309 308 307 307 306 305 305 305 304 303 302 301 300 298 297 296 294 292 291 292 291 290 290 293 296 298 298 298 298 298 299
Wind_Speed
13 13 10 10 10 9 10 8 8 8 7 9 11 13 13 12 12 14 15 14 14 14 14 14 13 9 7 4 5 8 11 13 6 4 9 9 5 1 2 4 5 7 8
13 13 12 12 11 10 10 9 6 8 9 10 12 14 15 15 14 14 14 14 14 16 15 14 14 11 11 9 7 6 8 13 9 10 12 7 6 6 7 7 8 9 11
12 12 14 13 13 11 11 8 7 6 9 10 11 14 17 16 17 17 16 17 18 16 15 16 16 14 14 11 9 6 5 7 11 14 9 8 10 8 9 8 8 8 9
14 13 15 16 14 12 11 8 6 6 7 9 9 12 14 15 16 16 17 17 19 20 19 18 16 15 15 14 13 11 10 11 12 16 12 11 10 9 9 9 7 7 8
18 18 19 18 14 12 11 9 6 6 7 7 8 11 11 11 12 13 15 18 19 19 19 18 18 17 15 14 15 15 12 12 13 13 10 9 8 9 7 5 6 7 7
18 20 20 16 15 14 12 12 9 9 8 7 8 9 9 8 9 8 8 11 13 14 15 14 15 16 16 15 14 14 14 13 12 11 9 7 6 4 6 7 9 3 2
17 16 15 18 21 18 15 13 12 12 9 7 9 8 8 7 7 7 7 8 11 13 13 16 15 15 14 14 14 14 14 11 8 6 10 5 2 1 4 7 7 2 0
14 10 16 21 23 22 18 14 13 12 9 6 8 8 8 8 7 7 7 8 9 11 12 12 14 15 16 15 15 17 17 17 14 13 10 9 6 2 2 3 5 2 6
6 5 6 11 17 23 20 18 15 14 10 8 7 7 8 7 5 5 3 5 7 8 9 10 8 8 11 11 12 15 15 15 13 14 13 11 8 3 3 4 7 9 3
7 5 6 6 10 18 23 20 17 16 13 12 9 6 6 5 3 5 3 4 6 6 7 6 7 6 4 6 6 8 11 10 9 9 9 9 9 6 1 5 5 9 3
10 7 4 3 6 10 18 21 19 16 15 13 10 7 4 4 4 5 7 4 4 4 5 5 5 4 5 4 3 3 3 3 3 3 4 6 7 7 6 6 6 3 10
12 10 7 7 6 12 16 20 18 17 16 12 9 8 5 4 4 3 6 6 4 1 3 6 6 6 8 8 6 6 4 5 8 8 7 4 2 4 5 6 8 8 4
12 11 10 8 8 11 17 19 19 17 16 12 7 5 5 3 3 5 7 8 4 2 6 7 6 6 7 7 7 5 6 4 7 8 8 4 3 3 2 1 2 1 2
13 13 13 11 11 11 13 16 17 16 14 11 9 7 5 5 5 6 6 5 6 6 6 4 5 6 5 5 4 5 5 5 5 4 1 2 5 5 5 4 5 5 7
11 10 11 11 12 13 13 13 12 11 10 9 7 7 8 7 7 6 6 5 5 5 5 5 3 2 1 2 1 1 1 2 2 2 1 1 2 3 4 4 5 6 7
12 11 12 12 12 12 12 13 11 10 8 7 7 5 6 6 7 5 4 4 5 5 5 3 3 6 5 3 1 2 3 1 1 2 3 4 3 3 4 4 5 6 7
12 13 13 14 13 13 12 12 14 11 9 8 6 5 5 6 6 4 3 3 4 4 4 4 8 6 3 1 1 1 0 3 6 7 6 5 4 4 5 5 7 5 5
12 13 15 15 15 14 12 11 10 11 9 7 6 5 6 6 5 4 4 4 5 5 3 4 5 4 4 3 1 1 2 3 7 7 7 6 7 8 8 7 7 8 7
13 13 13 12 12 11 10 9 10 9 8 7 6 7 7 6 5 4 4 5 4 2 2 3 6 7 7 6 6 7 6 6 6 7 8 8 9 10 9 10 8 7 7
15 13 13 12 12 12 11 11 10 7 5 5 5 6 7 6 5 4 5 6 4 2 1 4 6 7 8 8 8 9 10 10 10 10 10 11 12 11 10 12 13 14 12
15 15 16 16 15 17 16 15 13 11 11 10 9 7 6 6 5 5 4 4 5 6 7 7 7 8 9 9 9 9 11 10 11 13 13 12 10 11 12 13 14 13 14
13 15 16 19 17 19 20 17 16 16 15 15 14 11 10 9 9 8 9 10 11 11 13 14 12 10 10 8 8 9 10 11 13 14 16 17 17 16 15 15 14 14 14
17 16 14 16 16 16 16 14 13 12 13 16 17 14 14 15 12 11 11 11 9 10 9 8 11 10 8 8 7 8 9 10 12 14 15 17 18 21 20 19 18 17 17
16 12 11 15 12 13 13 12 9 7 6 4 4 5 7 7 8 9 8 7 5 4 6 6 5 4 3 1 1 4 7 9 11 13 14 15 17 18 18 20 22 20 20
15 15 17 18 17 17 17 14 12 10 10 9 10 10 10 7 6 5 7 9 9 8 8 6 5 3 2 4 6 9 12 13 14 16 15 15 16 17 18 18 20 21 23
20 22 22 21 19 16 15 15 13 13 12 12 12 12 12 13 13 12 11 9 8 7 6 4 3 4 5 8 10 13 15 17 18 18 16 15 15 16 17 17 18 18 19
Wind_Direction
170 157 175 164 154 146 126 107 85 89 71 63 61 59 62 64 64 71 71 69 72 72 70 73 73 76 97 142 192 198 187 179 139 129 144 150 132 156 78 87 84 72 60
169 165 191 181 169 150 128 120 106 91 73 70 68 65 63 67 71 69 71 69 69 65 62 65 64 69 72 73 82 114 169 185 163 132 142 136 133 140 129 118 98 89 79
170 187 198 197 187 157 137 138 128 110 85 74 73 70 70 68 72 74 75 75 73 71 70 68 62 65 65 66 74 85 93 159 177 158 135 153 136 141 126 112 97 89 83
181 204 205 210 197 166 152 142 142 124 103 87 84 78 75 75 73 71 70 75 77 75 74 71 67 64 65 65 72 77 99 130 139 149 136 140 146 152 144 129 105 88 76
185 197 211 215 197 179 162 158 156 148 127 104 101 92 80 79 79 73 76 80 78 75 69 68 66 64 66 67 69 73 91 107 122 127 120 134 142 156 171 176 135 110 78
198 201 214 217 198 188 179 173 178 165 152 123 119 109 96 80 84 81 80 82 70 64 63 63 70 67 66 70 75 79 81 100 113 121 121 126 161 201 196 178 157 136 66
211 210 212 242 205 194 188 183 182 169 156 135 127 119 107 99 97 85 89 89 79 76 70 67 74 70 68 74 82 87 86 84 96 121 130 114 118 221 203 180 174 343 60
217 220 218 214 202 195 196 188 183 173 159 148 138 128 111 105 106 97 91 96 95 86 77 75 73 75 74 76 85 89 87 84 84 93 94 81 68 71 142 207 226 166 120
176 188 180 195 203 200 200 193 186 173 163 148 145 140 120 113 136 117 84 95 100 89 84 74 72 83 83 70 78 91 93 91 94 93 86 75 61 79 117 137 159 159 165
198 221 233 215 215 205 205 197 185 182 166 155 146 139 134 120 139 186 165 113 110 93 94 86 71 69 101 72 70 98 100 104 114 102 88 74 63 67 215 277 262 224 180
176 193 201 192 233 218 207 193 178 180 173 160 145 137 136 126 87 187 195 177 128 99 105 93 76 70 71 81 54 62 90 130 138 156 131 81 59 59 56 43 28 254 215
153 156 155 150 185 183 186 173 174 177 168 158 149 134 127 121 116 100 202 201 161 93 102 102 89 81 93 84 73 48 0 253 233 211 189 147 68 85 67 55 38 53 90
146 144 136 141 146 157 163 166 171 175 169 156 148 130 128 123 121 117 112 154 149 128 117 111 96 108 114 83 64 63 50 81 125 133 163 201 199 204 203 314 312 340 42
156 150 144 148 134 137 150 165 171 164 158 156 154 145 138 126 124 127 134 140 126 132 128 106 102 108 99 86 64 57 78 90 104 113 152 255 250 258 263 272 299 277 261
148 153 142 139 129 127 128 130 140 148 159 163 169 167 165 159 148 141 126 131 133 124 114 109 105 109 228 240 293 21 80 156 158 142 116 6 300 284 266 267 279 279 273
167 157 149 149 139 136 135 127 128 131 137 143 146 156 167 167 160 154 148 140 133 124 105 69 119 121 98 77 32 275 261 226 320 308 297 291 296 304 324 330 308 278 286
169 152 149 139 140 141 143 143 135 128 131 132 141 152 153 166 168 165 152 148 144 125 103 98 132 140 136 109 56 61 23 334 321 307 287 278 281 293 313 319 351 313 278
163 160 146 141 135 138 139 132 132 138 136 141 145 142 146 159 169 167 152 150 145 132 123 138 165 183 215 248 289 337 315 326 328 322 312 302 308 310 311 316 321 339 320
175 167 161 152 150 155 152 138 130 136 135 135 141 153 162 171 185 185 178 173 164 138 164 206 221 236 253 270 277 287 290 305 323 321 321 323 310 320 298 312 302 316 313
188 182 181 180 185 191 188 180 174 171 178 185 174 168 179 185 190 188 186 193 205 229 253 250 245 243 251 266 276 280 286 293 300 308 311 313 321 322 300 295 308 297 295
207 210 212 209 221 218 213 214 213 208 210 221 221 203 204 209 194 192 214 244 273 275 272 278 251 246 256 262 272 291 297 299 293 293 297 303 302 306 324 308 292 296 291
195 187 194 202 207 217 222 223 228 235 237 240 241 233 229 239 245 251 267 285 296 294 277 259 260 272 274 268 270 285 291 296 299 301 298 293 292 296 298 301 302 289 286
188 188 193 199 203 208 216 220 229 238 232 247 259 247 235 237 245 261 281 301 297 285 283 253 234 244 242 241 265 281 291 303 307 302 294 291 289 290 288 287 288 279 275
200 202 202 181 190 176 159 162 151 148 165 191 198 198 214 235 247 257 268 263 236 198 171 168 175 181 180 194 312 321 321 317 310 312 313 307 302 299 297 295 286 278 281
198 185 167 168 161 147 143 139 136 129 125 133 141 147 155 167 176 167 155 143 135 127 115 108 106 98 41 7 354 345 336 326 322 320 320 318 315 307 305 301 295 292 290
159 153 145 142 138 135 135 135 132 131 129 134 139 141 143 135 132 130 128 127 124 117 107 90 60 19 356 347 344 341 339 332 329 326 327 329 325 323 323 323 319 311 309